4XDNS LLHA-LLHA

Flight info

Callsign 4XDNS
Flight time 0h 8m
Altitude 1000
Route CIRCUITS
Aircraft C172/L-VD/A

Departure

Time 2026-04-22 19:23
Airport Uri Michaeli Haifa International Airport (LLHA)

Arrival

Time 2026-04-22 19:31
Airport Uri Michaeli Haifa International Airport (LLHA)
Time Latitude Longitude Altitude Speed Heading
2026-04-22 19:17 32.81449 35.04317 24 ft 0 kts 70°
2026-04-22 19:20 32.81483 35.04320 26 ft 11 kts 332°
2026-04-22 19:20 32.81480 35.04260 28 ft 7 kts 247°
2026-04-22 19:20 32.81421 35.04193 28 ft 16 kts 166°
2026-04-22 19:20 32.81204 35.04289 27 ft 37 kts 158°
2026-04-22 19:21 32.80978 35.04384 27 ft 32 kts 161°
2026-04-22 19:21 32.80784 35.04464 25 ft 28 kts 165°
2026-04-22 19:21 32.80656 35.04518 24 ft 6 kts 152°
2026-04-22 19:21 32.80707 35.04515 25 ft 29 kts 337°
2026-04-22 19:22 32.81034 35.04362 64 ft 62 kts 341°
2026-04-22 19:22 32.81467 35.04179 222 ft 69 kts 346°
2026-04-22 19:22 32.81922 35.04012 458 ft 68 kts 342°
2026-04-22 19:22 32.82358 35.04096 570 ft 78 kts 47°
2026-04-22 19:23 32.82719 35.04658 668 ft 93 kts 48°
2026-04-22 19:23 32.82861 35.05370 824 ft 98 kts 113°
2026-04-22 19:23 32.82295 35.05776 1032 ft 97 kts 163°
2026-04-22 19:23 32.81687 35.06032 1041 ft 93 kts 160°
2026-04-22 19:24 32.81053 35.06311 953 ft 102 kts 160°
2026-04-22 19:24 32.80354 35.06643 905 ft 112 kts 155°
2026-04-22 19:24 32.79676 35.06962 956 ft 105 kts 161°
2026-04-22 19:24 32.78907 35.07003 943 ft 119 kts 207°
2026-04-22 19:25 32.78441 35.06261 828 ft 128 kts 254°
2026-04-22 19:25 32.78513 35.05675 880 ft 114 kts 306°
2026-04-22 19:25 32.79003 35.05213 626 ft 76 kts 342°
2026-04-22 19:25 32.79466 35.05065 355 ft 62 kts 349°
2026-04-22 19:26 32.79896 35.04878 260 ft 70 kts 338°
2026-04-22 19:26 32.80340 35.04670 65 ft 64 kts 344°
2026-04-22 19:26 32.80700 35.04525 27 ft 52 kts 340°
2026-04-22 19:26 32.81089 35.04348 148 ft 60 kts
2026-04-22 19:27 32.81509 35.04208 247 ft 67 kts 342°
2026-04-22 19:27 32.82015 35.04079 370 ft 76 kts 345°
2026-04-22 19:27 32.82428 35.04216 559 ft 73 kts 43°
2026-04-22 19:27 32.82787 35.04734 612 ft 95 kts 47°
2026-04-22 19:28 32.82829 35.05428 743 ft 95 kts 146°
2026-04-22 19:28 32.82192 35.05790 925 ft 100 kts 155°
2026-04-22 19:28 32.81500 35.06129 963 ft 116 kts 157°
2026-04-22 19:28 32.80707 35.06501 896 ft 130 kts 156°
2026-04-22 19:29 32.79985 35.06810 889 ft 102 kts 162°
2026-04-22 19:29 32.79248 35.07055 721 ft 112 kts 169°
2026-04-22 19:29 32.78637 35.06700 756 ft 108 kts 228°
2026-04-22 19:29 32.78303 35.05953 913 ft 90 kts 284°
2026-04-22 19:30 32.78521 35.05566 844 ft 90 kts 316°
2026-04-22 19:30 32.79227 35.05097 517 ft 86 kts 347°
2026-04-22 19:30 32.79796 35.04904 290 ft 86 kts 340°
2026-04-22 19:30 32.80331 35.04665 122 ft 73 kts 343°
2026-04-22 19:31 32.80754 35.04503 38 ft 59 kts 341°
2026-04-22 19:31 32.81186 35.04341 141 ft 72 kts 342°
2026-04-22 19:31 32.81587 35.04198 458 ft 43 kts 347°
2026-04-22 19:31 32.82095 35.04024 386 ft 79 kts 350°
2026-04-22 19:32 32.82550 35.04350 488 ft 92 kts 48°
2026-04-22 19:32 32.82878 35.05056 570 ft 103 kts 77°
2026-04-22 19:32 32.82601 35.05720 865 ft 92 kts 148°
2026-04-22 19:32 32.81946 35.06080 951 ft 107 kts 156°
2026-04-22 19:33 32.81192 35.06373 916 ft 119 kts 161°
2026-04-22 19:33 32.80407 35.06696 973 ft 121 kts 161°
2026-04-22 19:33 32.79552 35.07040 787 ft 120 kts 173°
2026-04-22 19:33 32.78844 35.06724 796 ft 118 kts 217°
2026-04-22 19:34 32.78440 35.06020 770 ft 83 kts 281°
2026-04-22 19:34 32.78718 35.05496 619 ft 79 kts 318°
2026-04-22 19:34 32.79160 35.05177 499 ft 71 kts 341°
2026-04-22 19:34 32.79613 35.04992 378 ft 67 kts 339°
2026-04-22 19:35 32.80068 35.04781 203 ft 73 kts 343°
2026-04-22 19:35 32.80565 35.04575 72 ft 78 kts 340°
2026-04-22 19:35 32.81066 35.04351 26 ft 75 kts 339°
2026-04-22 19:35 32.81525 35.04137 180 ft 67 kts 341°
2026-04-22 19:36 32.82019 35.03929 297 ft 80 kts 340°
2026-04-22 19:36 32.82496 35.04105 461 ft 84 kts 41°
2026-04-22 19:36 32.82961 35.04687 464 ft 106 kts 43°
2026-04-22 19:36 32.83012 35.05368 775 ft 94 kts 130°
2026-04-22 19:37 32.82365 35.05771 775 ft 117 kts 160°
2026-04-22 19:37 32.81581 35.06109 836 ft 125 kts 158°
2026-04-22 19:37 32.80756 35.06512 867 ft 129 kts 156°
2026-04-22 19:37 32.79961 35.06919 968 ft 126 kts 155°
2026-04-22 19:38 32.79194 35.07163 1072 ft 85 kts 216°
2026-04-22 19:38 32.78879 35.06679 828 ft 76 kts 245°
2026-04-22 19:38 32.78736 35.06086 663 ft 76 kts 277°
2026-04-22 19:38 32.78864 35.05507 562 ft 73 kts 301°
2026-04-22 19:39 32.79257 35.05125 491 ft 73 kts 336°
2026-04-22 19:39 32.79690 35.04928 262 ft 65 kts 343°
2026-04-22 19:39 32.80133 35.04745 123 ft 64 kts 345°
2026-04-22 19:39 32.80539 35.04591 35 ft 64 kts 342°
2026-04-22 19:40 32.80897 35.04417 27 ft 49 kts 337°
2026-04-22 19:40 32.81199 35.04299 27 ft 45 kts 341°
2026-04-22 19:40 32.81442 35.04193 29 ft 9 kts 357°
2026-04-22 19:40 32.81469 35.04227 29 ft 7 kts 69°
2026-04-22 19:41 32.81499 35.04323 27 ft 13 kts 73°
2026-04-22 19:41 32.81512 35.04380 26 ft 0 kts 68°